Location: Newark
(13.6797°N, 8.5297°E)
Time: 17:48:38
(UTC+00:00)

Courier 1B Rocket - Pass Details

Date: 20 January 2020
Orbit: 920 x 1202 km, 28.2° (Epoch: 22 February)

Event Time Altitude Azimuth Distance (km) Brightness Sun altitude
Rises 21:37:35 0° 266° (W) 3,608 - -60.8°
Reaches altitude 10° 21:41:25 10° 243° (WSW) 2,707 - -61.7°
Maximum altitude 21:45:00 15° 210° (SSW) 2,394 - -62.5°
Drops below altitude 10° 21:48:43 10° 176° (S) 2,810 - -63.4°
Sets 21:52:51 0° 154° (SSE) 3,829 - -64.3°
